Location: Unspecified
(39.1734°N, 0.0000°E)
Time: 03:16:27
(UTC+00:00)

OTV 5 (USA 277) - Pass Details

Date: 02 June 2019
Orbit: 310 x 325 km, 54.5° (Epoch: 08 May)

Event Time Altitude Azimuth Distance (km) Brightness Sun altitude
Exits shadow 03:59:42 - 195° (SSW) 1,677 ? -6.7°
Reaches altitude 10° 04:00:55 10° 184° (S) 1,232 ? -6.5°
Maximum altitude 04:03:08 22° 130° (SE) 760 ? -6.1°
Drops below altitude 10° 04:05:23 10° 75° (ENE) 1,237 ? -5.8°
Sets 04:07:35 0° 59° (ENE) 2,071 ? -5.4°
